Location: Sommers-Bausch Observatory
(40.0037°N, 105.2635°W)
Time: 23:50:19
(UTC-06:00)

Daily predictions for brighter satellites

Satellite Brightness Start Highest point End
(mag) Time Altitude Azimuth Time Altitude Azimuth Time Altitude Azimuth
Cosmos 1633 Rocket 3.3 20:15:55 10° N 20:20:10 50° E 20:24:23 10° SSE
Cosmos 2221 4.4 20:19:21 10° SW 20:23:14 35° WNW 20:27:10 10° N
NOSS 3-3 (A) 4.0 20:18:35 10° SSW 20:24:34 85° ESE 20:31:09 10° NE
NOSS 3-3 (C) 4.0 20:18:41 10° SSW 20:24:40 84° ESE 20:31:16 10° NE
Meteor 2-15 Rocket 4.5 20:20:46 10° N 20:26:55 72° E 20:33:00 10° SSE
SL-16 R/B 3.6 20:27:52 10° SE 20:31:17 17° E 20:34:42 10° ENE
Cosmos 1515 Rocket 4.2 20:27:34 10° SSE 20:31:36 35° E 20:35:40 10° NNE
Nadezhda 3 Rocket 4.0 20:26:21 10° N 20:32:42 80° E 20:39:03 10° S
ATLAS CENTAUR R/B 1.1 20:34:22 10° SW 20:37:59 82° WNW 20:41:49 10° NNE
SJ-6B 3.6 20:37:22 10° S 20:41:19 54° W 20:45:13 10° NNW
Cosmos 2228 Rocket 3.4 20:37:46 10° SSE 20:41:56 45° E 20:46:08 10° NNE
BREEZE-M DEB (TANK) 2.9 20:40:31 10° NW 20:45:00 49° NNE 20:46:35 18° E
Cosmos 1408 3.3 20:43:28 10° NNE 20:46:51 34° ENE 20:49:08 17° SE
Meteor 2-3 Rocket 3.7 20:42:28 10° N 20:48:06 79° E 20:53:45 10° SSE
H-2A R/B 3.7 20:45:53 13° E 20:48:11 17° ENE 20:51:17 10° NNE
Cosmos 1328 Rocket 3.5 20:44:37 10° S 20:49:02 83° E 20:53:29 10° N
Cosmos 1869 4.1 20:47:35 13° SSE 20:50:35 30° E 20:54:09 10° NNE
Cosmos 1939 Rocket 2.7 20:48:12 10° SSE 20:52:04 88° ENE 20:56:00 10° NNW
Envisat 3.9 20:48:51 10° S 20:53:46 51° W 20:58:44 10° NNW
ERS-2 3.0 20:51:29 10° S 20:55:03 50° W 20:58:39 10° NNW
Cosmos 1980 3.6 20:50:59 10° SSW 20:56:39 78° ESE 21:02:21 10° NNE
Cosmos 1455 2.9 20:57:10 10° SSW 21:00:56 57° W 21:04:46 10° N
YAOGAN 6 3.2 20:59:53 10° S 21:03:24 57° W 21:07:01 10° NNW
Cosmos 1470 Rocket 3.5 21:00:00 10° N 21:04:25 81° E 21:08:25 13° S
SAR-Lupe-3 4.5 21:03:21 10° NNE 21:06:57 88° ESE 21:10:31 10° SSW
SL-8 R/B 3.9 21:02:22 10° WSW 21:07:09 73° NNW 21:11:58 10° ENE
Cosmos 2056 Rocket 3.8 21:02:10 10° S 21:07:18 45° ESE 21:12:27 10° NNE
Resurs 01 Rocket 1.8 21:03:27 10° S 21:07:53 73° WSW 21:12:20 10° NNW
Cosmos 1844 Rocket 4.3 21:03:45 10° NW 21:08:46 33° WSW 21:13:44 10° SSW
Cosmos 2333 Rocket 3.1 21:04:32 10° SW 21:10:02 51° WNW 21:15:33 10° NNE
Lacrosse 5 4.3 21:11:16 10° NNW 21:13:38 13° NNE 21:16:00 10° NE
Cosmos 1959 Rocket 4.4 21:11:22 10° S 21:17:30 72° E 21:23:36 10° NNE
Cosmos 2098 Rocket 3.0 21:15:16 15° S 21:19:05 57° E 21:22:49 10° NNE
Cosmos 2219 Rocket 3.8 21:15:06 10° SW 21:20:17 36° WNW 21:25:30 10° N
Cosmos 405 3.7 21:17:34 10° N 21:20:48 34° ENE 21:20:51 34° ENE
Cosmos 1727 Rocket 4.2 21:15:43 10° N 21:21:43 51° E 21:24:55 27° SE
Genesis I 4.2 21:18:27 10° NW 21:22:21 43° WSW 21:24:40 21° S
Centaur D-1A AC-31 3.3 21:12:35 10° SW 21:23:39 24° S 21:25:38 20° SSE
Cosmos 2237 Rocket 2.5 21:18:09 10° SSW 21:23:44 68° WNW 21:29:22 10° NNE
Cosmos 1624 Rocket 3.9 21:18:54 10° S 21:24:03 68° ESE 21:29:13 10° NNE
Cosmos 1190 Rocket 4.3 21:22:20 10° N 21:27:30 51° ENE 21:29:24 34° ESE
ATLAS 2A CENTAUR R/B 4.3 21:11:48 10° SW 21:29:08 36° S 21:33:58 26° SE
SL-08 RB Rocket 4.3 21:28:22 34° E 21:29:13 37° ENE 21:33:20 10° N
Cosmos 1151 Rocket 3.9 21:26:47 10° SSW 21:30:55 49° W 21:35:05 10° N
Cosmos 1933 Rocket 4.1 21:28:35 10° NNW 21:32:53 57° W 21:35:57 18° SSW
Cosmos 2278 Rocket 2.5 21:28:49 10° NNW 21:34:26 64° WSW 21:38:02 22° S
Spot 2 Rocket 4.2 21:32:05 13° S 21:36:28 53° W 21:41:27 10° NNW
Cosmos 405 Rocket 3.4 21:37:07 38° ENE 21:37:07 38° ENE 21:40:12 10° NNE
Cosmos 2218 Rocket 4.1 21:31:17 10° S 21:37:37 79° W 21:44:03 10° N
ATLAS 2AS CENTAUR R/B 3.5 21:31:34 10° NW 21:39:03 51° WSW 21:44:15 18° S
Cosmos 1862 3.7 21:37:21 10° N 21:41:10 46° ENE 21:41:10 46° ENE
SL-08 R/B 4.5 21:35:42 10° S 21:42:01 89° E 21:48:29 10° N
Cosmos 1707 Rocket 4.0 21:46:31 42° ENE 21:46:31 42° ENE 21:50:08 10° NNE
Cosmos 1825 3.3 21:42:38 10° NNW 21:46:14 42° W 21:47:57 25° SSW
Cosmos 2366 rocket 4.2 21:41:23 10° SSW 21:47:34 73° W 21:53:52 10° N
Helios 1A 3.7 21:54:51 40° NE 21:54:51 40° NE 21:58:24 10° N
Cosmos 1869 Rocket 3.4 21:51:13 10° N 21:55:35 73° E 21:55:47 72° ESE
GEOS 3 Rocket 3.7 21:53:38 10° NE 21:58:49 53° ESE 21:58:49 53° ESE
NOSS 3-4 (A) 3.8 22:02:40 10° NW 22:09:48 90° SSW 22:12:16 47° SSE
NOSS 3-4 (C) 3.8 22:02:46 10° NW 22:09:54 89° ENE 22:12:21 47° SSE
Cosmos 1420 Rocket 4.4 22:10:47 48° ENE 22:10:47 48° ENE 22:15:06 10° NNE
ERS-1 Rocket 2.8 22:10:03 69° SSE 22:10:41 89° ENE 22:15:45 10° NNW
Cosmos 614 Rocket 4.0 22:05:37 10° NNW 22:10:49 63° ENE 22:11:01 63° E
ARGOS 3.4 22:10:53 42° SSW 22:12:33 63° WSW 22:17:53 10° NNW
MetOp-B 4.2 22:11:24 49° S 22:12:47 72° WSW 22:18:08 10° NNW
CZ-4C R/B 3.2 22:15:43 31° ENE 22:15:43 31° ENE 22:18:56 10° NE
SL-16 R/B 2.5 22:09:10 10° SSW 22:14:46 65° WNW 22:20:25 10° NNE
Cosmos 1943 Rocket 3.9 22:13:20 10° N 22:17:01 18° NE 22:17:25 18° ENE
Cosmos 407 Rocket 3.8 22:12:01 10° NNW 22:17:03 57° WSW 22:17:56 50° SW
USA 267 3.2 22:11:19 10° NE 22:17:44 55° SE 22:24:06 10° SSW
DMSP B5D2-2 4.0 22:13:00 10° NNE 22:18:01 67° E 22:18:01 67° E
SPOT 1/Viking Rocket 3.6 22:19:07 62° ENE 22:19:07 62° ENE 22:24:15 10° N
Cosmos 1933 4.3 22:27:24 43° N 22:27:24 43° N 22:30:15 10° N
H-2A R/B 2.3 22:26:31 53° SW 22:27:09 57° W 22:32:04 10° NNW
Terra 2.9 22:31:29 35° NE 22:31:29 35° NE 22:34:48 10° N
Cosmos 676 Rocket 4.2 22:33:25 10° NNW 22:38:32 61° WSW 22:38:32 61° WSW
Cosmos 1934 Rocket 3.9 22:40:16 70° ENE 22:40:16 70° ENE 22:46:00 10° NNE
Cosmos 1603 4.3 22:43:31 46° NE 22:43:31 46° NE 22:47:28 10° NNE
Cosmos 1452 Rocket 4.0 22:49:32 52° W 22:50:04 54° WNW 22:55:14 10° N
Cosmos 2344 3.7 22:43:57 10° SW 22:51:33 74° NW 22:59:54 10° NNE
Cosmos 2369 Rocket 3.0 22:47:28 10° NNW 22:52:10 42° NE 22:52:10 42° NE
SPOT 5 3.8 22:56:17 42° WNW 22:56:17 42° WNW 22:59:37 10° NNW
Lacrosse 5 3.2 22:53:24 10° NNW 22:57:31 33° NNE 22:57:31 33° NNE
CZ-2C R/B 4.2 23:00:01 10° NNE 23:02:27 25° NE 23:02:27 25° NE
Helios 1B rocket 4.3 23:04:26 10° N 23:06:54 29° NNW 23:06:54 29° NNW
ATLAS 5 CENTAUR R/B 3.0 23:12:03 10° NNW 23:17:12 51° NNE 23:17:12 51° NNE
Cosmos 2123 Rocket 4.4 23:20:44 10° NNW 23:26:25 57° WNW 23:26:25 57° WNW
